ATLAS CENTAUR 2 1 00694U 63047A 13168.48811731 .00000554 00000-0 62234-4 0 2449 2 00694 30.3564 261.7408 0604673 349.5585 98.8497 13.97967815477790 THOR AGENA D R/B 1 00733U 64002A 13168.18834913 .00000061 00000-0 40186-4 0 9700 2 00733 98.9823 269.7309 0035280 107.6359 310.7227 14.31647511573212 SL-3 R/B 1 00877U 64053B 13169.54628449 .00000121 00000-0 24818-4 0 3155 2 00877 65.0789 235.4352 0078687 313.7665 45.7419 14.58567966588569 SL-8 R/B 1 02802U 67045B 13169.06085875 .00000130 00000-0 45723-4 0 1994 2 02802 74.0132 3.5571 0066807 48.3408 312.3440 14.42928192418312 SL-8 R/B 1 03230U 68040B 13168.81739024 .00000598 00000-0 71395-4 0 9530 2 03230 74.0388 279.4292 0033636 260.7699 98.9676 14.86432460418191 OAO 2 1 03597U 68110A 13168.70052488 .00000081 00000-0 28063-4 0 2077 2 03597 34.9926 240.4493 0005136 84.1790 64.3606 14.45228861346468 ISIS 1 1 03669U 69009A 13169.08017966 .00000012 00000-0 -93688-5 0 6120 2 03669 88.4306 309.6403 1714264 98.6101 327.1721 11.29101195824164 SERT 2 1 04327U 70009A 13167.57861745 -.00000024 00000-0 22238-4 0 6516 2 04327 99.1748 322.9794 0005371 165.7653 235.1281 13.58311813149056 SL-3 R/B 1 04814U 70113B 13168.47500196 .00001878 00000-0 85747-4 0 2138 2 04814 81.1488 322.1795 0035479 7.5039 352.6714 15.19523873311557 SL-3 R/B 1 05118U 71028B 13168.48712880 .00000714 00000-0 45989-4 0 3074 2 05118 81.2360 23.0180 0046138 91.7782 268.8727 15.06117318283698 ASTEX 1 1 05560U 71089A 13167.92319278 .00000149 00000-0 41265-4 0 278 2 05560 92.7244 93.2414 0014459 245.0131 164.1126 14.46868647189753 SL-8 R/B 1 05730U 71119B 13168.61514600 .00005170 00000-0 36534-3 0 4752 2 05730 73.8988 174.6272 0762674 340.5714 128.9869 13.86690598 1958 COSMOS 482 DESCENT CRAFT 1 06073U 72023E 13169.12471801 .00028008 44239-5 17544-3 0 1298 2 06073 52.0775 159.8173 1935507 11.9093 64.5470 11.76770295182418 OAO 3 (COPERNICUS) 1 06153U 72065A 13168.18592675 .00000122 00000-0 31213-4 0 3697 2 06153 35.0079 61.9820 0006214 41.9325 93.8516 14.57071731167602 ATLAS CENTAUR R/B 1 06155U 72065B 13167.85909808 .00000335 00000-0 59259-4 0 628 2 06155 35.0049 310.8817 0039255 107.7114 252.7875 14.69258303176723 SL-8 R/B 1 07004U 73107B 13170.56885873 .00015249 00000-0 48898-3 0 3334 2 07004 73.9549 244.0582 0345133 117.9508 245.7573 14.90103463 16163 DELTA 1 R/B 1 08063U 75072B 13171.20800948 .00035123 00000-0 74360-3 0 5737 2 08063 89.1560 200.4610 0713635 0.0549 0.1084 14.24343470671845 SL-8 R/B 1 08459U 75112B 13168.77689561 .00000071 00000-0 33106-4 0 8411 2 08459 74.0633 271.1355 0015168 85.7602 274.5284 14.36220700964482 SL-3 R/B 1 10114U 77057B 13168.51701602 .00000527 00000-0 34495-4 0 9953 2 10114 97.3219 39.8575 0015604 11.9882 348.1717 15.11695209962447 SL-3 R/B 1 10861U 78045B 13170.62591220 .00066068 00000-0 46253-3 0 3149 2 10861 81.1901 101.8892 0005423 221.8365 138.3012 15.74160313931561 SEASAT 1 1 10967U 78064A 13168.50589865 .00000022 00000-0 47539-4 0 349 2 10967 107.9931 130.7150 0002753 284.4976 178.3266 14.42721902835875 SL-14 R/B 1 11267U 79011B 13169.15484828 .00000250 00000-0 24592-4 0 1204 2 11267 82.5247 166.9437 0018127 46.9675 5.5695 14.87725292858298 SL-8 R/B 1 11574U 79089B 13168.20664722 .00000080 00000-0 33692-4 0 4797 2 11574 74.0709 34.6931 0016832 309.6304 200.1482 14.40012178766800 SL-14 R/B 1 11672U 80005B 13169.11168632 .00000287 00000-0 29378-4 0 7211 2 11672 82.5154 16.5417 0018657 120.1196 29.4660 14.86771946806357 SL-3 R/B 1 11849U 80051B 13168.53488444 .00005121 00000-0 14572-3 0 987 2 11849 97.7737 26.2641 0009362 149.9095 210.2688 15.36588331810990 SL-3 R/B 1 11933U 80069B 13170.94888198 .00016974 00000-0 24275-3 0 66 2 11933 81.2109 78.1570 0014304 148.4725 211.7908 15.56062597806470 COSMOS 1220 1 12054U 80089A 13170.00877502 .00014292 00000-0 19414-3 0 2889 2 12054 64.9574 163.8800 0045284 271.7480 87.9000 15.56018735692526 SL-8 R/B 1 12139U 81003B 13169.12253244 .00004606 00000-0 25603-3 0 9783 2 12139 82.9550 312.7432 0547945 69.5037 296.4074 14.35906239635887 SL-8 R/B 1 12389U 81033B 13170.63140418 .00019701 00000-0 44261-3 0 6903 2 12389 82.8902 89.8069 0290069 310.6834 47.0006 15.09457619654699 SL-3 R/B 1 12465U 81046B 13168.18466119 .00001666 00000-0 10616-3 0 9965 2 12465 81.2274 257.3953 0034835 155.5073 204.7816 15.07703709746764 METEOR PRIRODA 1 12585U 81065A 13168.54559716 .00001554 00000-0 95410-4 0 5356 2 12585 97.2987 170.4151 0019658 91.0922 21.9161 15.11352087740875 SL-3 R/B 1 12904U 81103B 13168.46533068 .00000316 00000-0 22791-4 0 2542 2 12904 81.1790 139.5291 0031091 178.2585 181.8750 15.01005265273315 SL-3 R/B 1 13068U 82013B 13168.47389244 .00000656 00000-0 47088-4 0 1565 2 13068 81.2060 85.8034 0024961 88.5867 271.8213 15.02719388703748 SL-3 R/B 1 13154U 82039B 13169.16641772 .00000807 00000-0 70964-4 0 9883 2 13154 81.1863 75.3569 0042575 356.4786 3.6124 14.94827151685300 COSMOS 1400 1 13402U 82079A 13168.48833186 .00012738 00000-0 23977-3 0 9808 2 13402 81.1247 170.0758 0006799 140.0957 6.0391 15.48375358693321 SL-3 R/B 1 13403U 82079B 13168.50397611 .00001487 00000-0 11047-3 0 3189 2 13403 81.1717 137.6069 0038155 40.0106 320.3914 15.01858373677051 SL-3 R/B 1 13819U 83010B 13168.49476262 .00001631 00000-0 10174-3 0 5974 2 13819 81.1048 58.3527 0034886 124.8490 235.6024 15.08468746652939 SL-3 R/B 1 14208U 83075B 13169.18778612 .00000832 00000-0 61297-4 0 7673 2 14208 97.4733 213.2659 0046269 106.9222 253.7084 15.05155460627429 COSMOS 1500 1 14372U 83099A 13168.51551736 .00001046 00000-0 64819-4 0 2837 2 14372 82.5332 338.6275 0021192 89.7733 326.1303 15.08503987616814 SL-8 R/B 1 14484U 83111B 13170.00632104 .00027408 00000-0 60574-3 0 2408 2 14484 82.8362 313.1965 0298826 110.3358 253.0773 15.08251128517447 COSMOS 1536 1 14699U 84013A 13168.83971544 .00000515 00000-0 38525-4 0 8329 2 14699 82.5286 299.5799 0012788 348.9217 11.1724 15.00625506593689 COSMOS 1544 1 14819U 84027A 13168.24036747 .00002547 00000-0 14069-3 0 6703 2 14819 82.4914 43.9993 0020748 100.3965 37.1562 15.13306254593792 SL-14 R/B 1 14820U 84027B 13168.46530016 .00000174 00000-0 18629-4 0 3772 2 14820 82.5441 269.0498 0019274 193.0498 293.7727 14.82667512579444 ERBS 1 15354U 84108B 13168.50205100 .00002549 00000-0 11940-3 0 2442 2 15354 57.0127 220.8329 0014230 234.6105 125.3612 15.23271773573978 SL-8 R/B 1 15483U 85006B 13168.18367368 .00000105 00000-0 45273-4 0 9600 2 15483 74.0449 155.6392 0017934 139.2289 300.1850 14.35625276486848 SL-12 R/B(2) 1 15772U 85042D 13168.19019727 .00000078 00000-0 57417-4 0 1238 2 15772 71.1071 177.8119 0034511 157.2508 272.4044 14.20911734453891 SL-14 R/B 1 15945U 85069B 13168.49460838 .00000177 00000-0 18681-4 0 3642 2 15945 82.5283 60.2584 0021219 63.3231 352.3934 14.83016410504468 SL-3 R/B 1 16111U 85090B 13169.19804571 .00003532 00000-0 13267-3 0 1781 2 16111 97.4238 246.8502 0027733 242.8827 116.9583 15.27505844519501 SL-16 R/B 1 16182U 85097B 13168.18344775 -.00000265 00000-0 -11018-3 0 186 2 16182 71.0017 201.6001 0006177 154.8200 269.1920 14.16066663429381 SL-14 R/B 1 16496U 86006B 13168.85423509 .00000194 00000-0 20828-4 0 2734 2 16496 82.5267 296.9162 0019468 202.4131 303.9708 14.83117732480812 SL-14 R/B 1 16792U 86046B 13168.49685193 .00000171 00000-0 18331-4 0 1804 2 16792 82.4834 136.0909 0025908 62.5022 48.2613 14.82233284458429 SL-14 R/B 1 16882U 86055B 13168.11822713 .00000162 00000-0 17265-4 0 1641 2 16882 82.5209 160.5341 0020726 175.0281 302.3645 14.82198556451376 AJISAI (EGS) 1 16908U 86061A 13169.20919778 -.00000111 00000-0 -98527-4 0 1518 2 16908 50.0107 343.7090 0011269 339.3272 202.3313 12.44472983889646 COSMOS 1812 1 17295U 87003A 13168.51374674 .00001327 00000-0 87708-4 0 671 2 17295 82.5213 134.6258 0014529 101.3053 38.3928 15.06504853438342 SL-14 R/B 1 17567U 87024B 13168.87302926 .00000186 00000-0 19902-4 0 668 2 17567 82.5304 125.0428 0021062 119.8578 295.3283 14.82750498419994 COSMOS 1833 1 17589U 87027A 13168.53853236 .00000275 00000-0 17379-3 0 4683 2 17589 70.9185 14.1709 0004968 261.6541 130.7332 14.12809470354003 SL-16 R/B 1 17590U 87027B 13169.01591095 -.00000111 00000-0 -31719-4 0 4306 2 17590 71.0045 344.4149 0005478 345.7704 14.3264 14.16589977357332 SL-14 R/B 1 17912U 87038B 13168.06722936 .00000149 00000-0 15807-4 0 608 2 17912 82.5023 340.5039 0020176 4.0338 356.1035 14.82050487411244 COSMOS 1844 1 17973U 87041A 13168.15694069 -.00000209 00000-0 -84573-4 0 4906 2 17973 70.9006 112.3899 0029697 161.8355 289.8440 14.13870482346620 SL-14 R/B 1 18153U 87055B 13168.17873265 .00000166 00000-0 17798-4 0 496 2 18153 82.5004 35.4009 0021603 210.0928 297.6048 14.82290671401858 COSMOS 1867 1 18187U 87060A 13169.91544135 .00000042 00000-0 16070-4 0 7732 2 18187 65.0121 352.4457 0020813 272.8975 87.0215 14.30968207355192 SL-14 R/B 1 18749U 88001B 13169.20857469 .00000205 00000-0 22655-4 0 663 2 18749 82.5139 232.2448 0020604 81.1418 331.5960 14.82228517374123 COSMOS 1933 1 18958U 88020A 13169.13794302 .00000479 00000-0 37110-4 0 164 2 18958 82.5319 69.1824 0012543 190.4692 169.6273 14.99136249372416 SL-3 R/B 1 19046U 88032B 13169.20706141 .00000656 00000-0 59739-4 0 5644 2 19046 97.7012 224.3303 0035575 240.0027 119.7663 14.98154619353681 SL-16 R/B 1 19120U 88039B 13168.78488013 -.00000046 00000-0 11585-5 0 8039 2 19120 71.0139 170.2139 0024092 268.3806 148.3213 14.18968834299216 COSMOS 1953 1 19210U 88050A 13169.06775793 .00001384 00000-0 10947-3 0 1316 2 19210 82.5188 4.3816 0015634 180.9908 179.1287 14.99802338358483 SL-8 R/B 1 19257U 88053B 13168.24768950 .00000121 00000-0 49844-4 0 7713 2 19257 74.0506 21.3138 0021538 274.3832 222.9156 14.36792389308891 COSMOS 1975 1 19573U 88093A 13168.82027217 .00000958 00000-0 77904-4 0 8982 2 19573 82.5245 313.3496 0016423 209.2770 150.7534 14.98407184340609 SL-14 R/B 1 19574U 88093B 13169.20365009 .00000191 00000-0 20822-4 0 472 2 19574 82.5332 69.3483 0020868 245.1392 203.9748 14.82330042333081 SL-16 R/B 1 19650U 88102B 13168.54150112 .00000089 00000-0 69859-4 0 302 2 19650 70.9979 206.1077 0016167 249.1583 215.9813 14.15613820269276 INTERCOSMOS 24 1 20261U 89080A 13169.14207406 .00000484 00000-0 14392-3 0 821 2 20261 82.5911 235.0911 1210733 220.5623 129.8886 12.54352343 82775 SL-14 R/B 1 20262U 89080C 13168.53260154 .00000065 00000-0 16397-4 0 5821 2 20262 82.5956 271.1971 1239958 345.3151 112.2490 12.48204089 79436 DELTA 1 R/B 1 20323U 89089B 13168.53412193 .00000096 00000-0 34630-4 0 6803 2 20323 97.0801 327.1827 0072217 354.5862 75.3525 14.47313254243379 DELTA 2 R/B(1) 1 20453U 90008B 13168.85062943 .00005766 00000-0 39666-3 0 7059 2 20453 35.6275 94.1262 0343232 9.9352 350.7934 14.68256584232123 COSMOS 2058 1 20465U 90010A 13168.24627494 .00000557 00000-0 50521-4 0 8122 2 20465 82.4917 208.8940 0018188 159.0162 201.1808 14.93369411266927 SL-14 R/B 1 20466U 90010B 13168.85745288 .00000179 00000-0 20277-4 0 6596 2 20466 82.5047 298.2996 0022450 94.0677 51.8878 14.80444310261361 SL-14 R/B 1 20511U 90018B 13169.21094282 .00000158 00000-0 18229-4 0 6587 2 20511 82.5230 233.0695 0017263 213.3296 180.4704 14.79142022256171 HST 1 20580U 90037B 13167.74008509 .00000891 00000-0 51223-4 0 2634 2 20580 28.4696 275.7628 0003325 350.3355 136.2094 15.03692199 69630 SL-16 R/B 1 20625U 90046B 13169.17737769 -.00000303 00000-0 -13323-3 0 4652 2 20625 71.0001 333.1295 0013711 174.2558 227.1544 14.14479513191372 COSMOS 2084 1 20663U 90055A 13169.12154447 .00000464 00000-0 67738-4 0 8284 2 20663 62.7973 48.8299 0071001 178.1920 181.9443 14.87906809242235 SL-6 R/B(2) 1 20666U 90055D 13168.83437869 .00000412 00000-0 62423-4 0 8881 2 20666 62.7896 333.6903 0042083 213.7910 146.0499 14.88623537243499 SL-8 R/B 1 20775U 90078B 13168.48808225 .00004587 00000-0 25502-3 0 1635 2 20775 82.9350 150.7521 0670325 108.6460 33.7835 14.11206789141069 SL-8 R/B 1 21088U 91006B 13169.19394002 .00000127 00000-0 11326-3 0 6569 2 21088 82.9416 25.4447 0024038 87.9461 51.3625 13.76882161124674 OKEAN-3 1 21397U 91039A 13168.14638726 .00000634 00000-0 64597-4 0 9808 2 21397 82.5246 83.2768 0020675 75.0698 285.2808 14.88922439192050 COSMOS 2151 1 21422U 91042A 13169.13144101 .00000484 00000-0 48467-4 0 6077 2 21422 82.5008 193.6106 0016813 121.0035 239.2838 14.89187707190965 SL-14 R/B 1 21423U 91042B 13169.21199228 .00000199 00000-0 23933-4 0 4181 2 21423 82.4943 245.1248 0017197 355.5342 59.0521 14.78911650186731 ERS-1 1 21574U 91050A 13168.47347556 .00000119 00000-0 54644-4 0 6607 2 21574 98.2640 134.8718 0033552 8.1064 138.6359 14.36411387147790 ARIANE 40 R/B 1 21610U 91050F 13169.11231166 .00000197 00000-0 77347-4 0 2381 2 21610 98.7615 180.7159 0002552 356.6210 43.5682 14.39923384149914 INTERCOSMOS 25 1 21819U 91086A 13168.71238666 -.00000109 00000-0 -21973-4 0 666 2 21819 82.5578 219.2908 1538564 308.0402 39.1267 12.01254147936630 SL-14 R/B 1 21820U 91086B 13168.80713777 .00000408 00000-0 74236-4 0 9006 2 21820 82.5626 259.1151 1583967 82.8163 294.9584 11.91880420932699 SL-8 R/B 1 21876U 92008B 13167.20497082 .00000040 00000-0 25621-4 0 2114 2 21876 82.9272 123.6714 0035733 153.0078 298.6739 13.75468918 70390 SL-8 R/B 1 21938U 92020B 13168.10677833 .00000129 00000-0 11914-3 0 2556 2 21938 82.9294 5.0930 0027903 309.7275 198.5368 13.75129489 62478 SL-16 R/B 1 22220U 92076B 13168.53216519 .00000218 00000-0 13424-3 0 611 2 22220 71.0006 253.4885 0014024 330.6936 152.8375 14.16258332 63959 SL-16 R/B 1 22285U 92093B 13168.81974090 .00000345 00000-0 20347-3 0 586 2 22285 71.0222 35.5121 0004936 216.3881 143.6906 14.14850858 55961 COSMOS 2228 1 22286U 92094A 13168.77447736 .00000523 00000-0 58644-4 0 361 2 22286 82.5228 308.6647 0020183 279.8621 80.0316 14.84776472105523 SL-16 R/B 1 22566U 93016B 13168.79350431 -.00000082 00000-0 -17662-4 0 8123 2 22566 71.0076 252.0151 0010956 205.9915 154.0659 14.14779425 44701 COSMOS 2242 1 22626U 93024A 13169.03192371 .00000556 00000-0 62466-4 0 8007 2 22626 82.5232 336.0382 0018664 278.6767 81.2334 14.84883579 89213 SL-16 R/B 1 22803U 93059B 13168.85230320 -.00000267 00000-0 -10971-3 0 295 2 22803 70.9916 86.3742 0015004 87.9325 272.3516 14.16622261 21463 ARIANE 40 R/B 1 22830U 93061H 13169.03494514 .00000052 00000-0 37253-4 0 9131 2 22830 98.7743 135.8313 0010144 229.5614 173.5316 14.30898492 29384 COSMOS 2278 1 23087U 94023A 13168.16267616 -.00000295 00000-0 -13128-3 0 629 2 23087 71.0519 172.0447 0011473 282.1053 145.7309 14.13504466988027 SL-16 R/B 1 23088U 94023B 13168.86737374 .00000031 00000-0 40951-4 0 6795 2 23088 71.0022 106.8145 0002901 199.7223 219.2220 14.14535161989033 SL-16 R/B 1 23343U 94074B 13169.16199892 .00000179 00000-0 34018-4 0 7281 2 23343 98.2069 162.0413 0008293 73.1592 65.3607 14.75724967 1401 SL-16 R/B 1 23405U 94077B 13167.17651554 .00000322 00000-0 19071-3 0 7506 2 23405 70.9837 49.0165 0002868 337.3488 167.4669 14.15039861958688 ERS-2 1 23560U 95021A 13170.47992622 .00002701 00000-0 18409-3 0 6976 2 23560 98.5497 324.5806 0005131 159.3476 200.8457 15.06267245954601 ARIANE 40+ R/B 1 23561U 95021B 13168.87525213 .00000108 00000-0 51687-4 0 5071 2 23561 98.6307 127.8834 0005766 263.1662 130.7989 14.36957959951454 SL-16 R/B 1 23705U 95058B 13169.20564687 -.00000308 00000-0 -13461-3 0 06 2 23705 71.0208 211.8321 0013202 352.7932 7.2998 14.14972521910667 SL-16 R/B 1 24298U 96051B 13168.20847332 .00000056 00000-0 56564-4 0 2055 2 24298 70.8703 260.2092 0018081 205.8405 171.5739 14.12439111865532 ORBVIEW 2 (SEASTAR) 1 24883U 97037A 13168.95576260 .00000105 00000-0 54255-4 0 598 2 24883 98.4523 283.7040 0003564 111.6455 1.2845 14.32648756842766 SL-16 R/B 1 25400U 98043G 13168.84212820 -.00000032 00000-0 36691-5 0 3980 2 25400 98.2927 159.8356 0008738 255.7108 104.3103 14.25190992777040 SL-16 R/B 1 25407U 98045B 13168.62204152 .00000048 00000-0 48716-4 0 2169 2 25407 71.0106 230.4077 0009980 273.2880 248.5156 14.15604896769472 ISS (ZARYA) 1 25544U 98067A 13170.94447557 -.00054488 00000-0 00000+0 0 324 2 25544 51.6483 94.6612 0016678 94.4658 265.8781 15.50659641239239 SL-8 R/B 1 25723U 99022C 13168.20399536 .00002094 00000-0 96973-4 0 4120 2 25723 48.4175 229.2853 0021461 325.8579 77.6279 15.24393393781370 CZ-4B R/B 1 25732U 99025C 13169.00579693 .00000009 00000-0 26448-4 0 2836 2 25732 98.8470 141.9955 0036395 293.7764 136.5906 14.17381300729764 OKEAN-O 1 25860U 99039A 13168.46827623 .00000210 00000-0 38955-4 0 9737 2 25860 97.9898 130.9137 0002076 118.8718 28.4480 14.74617033748399 SL-16 R/B 1 25861U 99039B 13168.49206733 .00000126 00000-0 24861-4 0 3500 2 25861 97.8963 128.7607 0017529 113.4466 35.8851 14.77296285750010 SL-14 R/B 1 26874U 01032B 13168.17037893 .00004212 00000-0 88584-4 0 4047 2 26874 82.4759 3.1690 0016889 304.4104 55.5546 15.44826330664834 ENVISAT 1 27386U 02009A 13169.35559967 .00000020 00000-0 21154-4 0 4811 2 27386 98.4272 237.6488 0001101 90.8854 269.2460 14.37616375591305 IDEFIX & ARIANE 42P R/B 1 27422U 02021B 13168.36177103 .00000067 00000-0 43089-4 0 2274 2 27422 98.3516 222.1847 0011585 237.1523 251.7693 14.28863643578031 AQUA 1 27424U 02022A 13181.46460596 .00000362 00000-0 80320-4 0 6949 2 27424 98.1964 122.6294 0000326 23.5767 336.5972 14.57143564593456 CZ-4B R/B 1 27432U 02024C 13168.82266392 .00000009 00000-0 27517-4 0 7503 2 27432 98.7764 130.3351 0050152 215.0765 200.7841 14.13791258572429 JB-3 2 (ZY 2B) 1 27550U 02049A 13169.35728759 .00008934 00000-0 19832-3 0 621 2 27550 97.0984 157.0798 0005731 12.3478 121.5792 15.43917526593092 MIDORI II (ADEOS-II) 1 27597U 02056A 13168.17537412 .00000102 00000-0 59015-4 0 394 2 27597 98.2882 190.6344 0000668 71.9738 336.6941 14.26569819547055 H-2A R/B 1 27601U 02056E 13168.82383074 .00000083 00000-0 46577-4 0 8334 2 27601 98.5067 254.4635 0071570 295.1093 213.3622 14.31153026548889 CZ-4B R/B 1 28059U 03049C 13168.82635260 .00000029 00000-0 19588-4 0 7951 2 28059 98.7001 349.5001 0050607 10.2094 103.5689 14.51891989511719 CZ-2C R/B 1 28222U 04012C 13169.16205728 .00000747 00000-0 60942-4 0 9896 2 28222 97.3724 157.9740 0059470 142.2387 348.3993 15.00924838500885 SL-16 R/B 1 28353U 04021B 13168.82991944 .00000281 00000-0 17288-3 0 5113 2 28353 71.0010 260.7053 0006847 260.2412 239.0285 14.14017873465715 CZ-2C R/B 1 28480U 04046B 13168.16880534 .00000059 00000-0 38020-4 0 880 2 28480 98.0556 348.1727 0142498 221.6961 270.8050 14.25123302446092 ARIANE 5 R/B 1 28499U 04049H 13168.22729745 .00000261 00000-0 41517-4 0 7041 2 28499 98.2533 208.8207 0094354 238.2708 170.6277 14.78214977458014 CZ-2D R/B 1 28738U 05024B 13168.18976451 .00001680 00000-0 12448-3 0 5105 2 28738 97.6734 201.4381 0013074 323.5167 36.5167 15.04428975435552 SUZAKU (ASTRO-EII) 1 28773U 05025A 13167.95196822 .00001631 00000-0 10514-3 0 412 2 28773 31.3845 352.9194 0006258 172.6371 313.0328 15.05606731436067 ALOS (DAICHI) 1 28931U 06002A 13169.37307679 .00000391 00000-0 89867-4 0 2384 2 28931 98.0303 234.2932 0000852 142.3674 217.7592 14.60437803394213 H-2A R/B 1 28932U 06002B 13168.62050284 .00000640 00000-0 73775-4 0 4053 2 28932 98.3389 6.6350 0100204 36.3085 354.8126 14.86109876400416 AKARI (ASTRO-F) 1 28939U 06005A 13168.74123711 .00004774 00000-0 25120-3 0 2063 2 28939 98.2355 223.4336 0169224 134.0657 342.4251 15.04601135391569 RESURS-DK 1 1 29228U 06021A 13169.33960814 .00000111 00000-0 16541-4 0 8517 2 29228 69.9354 207.1226 0002167 53.0964 307.0373 14.99950795389005 GENESIS 1 1 29252U 06029A 13169.59775818 .00002204 00000-0 14273-3 0 9232 2 29252 64.5110 346.7297 0009169 203.0142 157.1077 15.07880466380974 CZ-4B R/B 1 29507U 06046C 13169.08200193 .00000569 00000-0 56184-4 0 2050 2 29507 97.7267 162.1476 0043332 119.5606 240.9944 14.95165890362419 SL-8 R/B 1 29659U 06060B 13170.30062675 .00021129 00000-0 32597-3 0 9651 2 29659 98.0797 79.1042 0022567 128.1730 232.2082 15.53813375363596 ATLAS 5 CENTAUR R/B 1 30778U 07006G 13168.49065569 .00009580 00000-0 29970-3 0 7025 2 30778 35.6907 305.9172 0019026 124.4384 309.1835 15.32273595348655 CZ-2C R/B 1 31114U 07010B 13167.94099273 .00000045 00000-0 39900-4 0 7069 2 31114 98.3234 126.8796 0061059 136.9585 255.8053 14.18863975320272 COSMO-SKYMED 1 1 31598U 07023A 13169.39718405 -.00000052 00000-0 -45418-7 0 6990 2 31598 97.8735 354.5891 0001398 88.6227 271.5172 14.82163339326215 GENESIS 2 1 31789U 07028A 13169.07384247 .00001276 00000-0 94014-4 0 6603 2 31789 64.5089 22.0015 0048392 241.6636 261.5333 15.07469290328050 COSMOS 2428 1 31792U 07029A 13170.86844907 .00000136 00000-0 10000-3 0 6247 2 31792 70.9568 229.0226 0010759 314.7110 14.9520 14.12303034308150 SL-16 R/B 1 31793U 07029B 13168.15591949 -.00000245 00000-0 -10318-3 0 7248 2 31793 70.9750 217.6895 0002650 270.8605 150.6350 14.14221231308149 KORONAS-FOTON 1 33504U 09003A 13169.29787278 .00001170 00000-0 72133-4 0 7837 2 33504 82.4806 237.6708 0024939 94.0271 332.8765 15.08738353240821 TIANGONG 1 1 37820U 11053A 13170.80652390 .00071040 00000-0 38205-3 0 9909 2 37820 42.7790 343.3367 0007074 331.5771 159.8740 15.79257960 99064